Home   Weather   Cruzeiro do Sul   Past weeks

Flag for Brazil Past Weather in Cruzeiro do Sul, Acre, Brazil — Yesterday and Last 2 Weeks

79 °F

Passing clouds.

Feels Like: 82 °F
Forecast: N/A
Wind: No wind

Location: Cruzeiro Do Sul Airport

Current Time: Oct 24, 2016 at 6:39:21 PM

Latest Report: Oct 24, 2016 at 6:00 PM

Visibility: N/A

Pressure: 29.71 "Hg

Humidity: 89%

Dew Point: 75 °F

Location of Cruzeiro do SulLocation

Past Weather in Cruzeiro do Sul — Graph


Cruzeiro do Sul Temperature Yesterday

Maximum temperature yesterday: 90 °F (at 12:00 PM)
Minimum temperature yesterday: 73 °F (at 1:00 AM)
Average temperature yesterday: 81 °F

High & Low Weather Summary for the Past Weeks

High95 °F (Oct 18, 2:00 PM)100% (Oct 9, 11:00 PM)30.01 "Hg (Oct 9, 11:00 PM)
Low73 °F (Oct 9, 11:00 PM)44% (Oct 19, 3:00 PM)29.68 "Hg (Oct 20, 4:00 PM)
Average81 °F80%29.84 "Hg
* Reported Oct 9 5:00 PM — Oct 24 5:00 PM, Cruzeiro do Sul, Weather by CustomWeather, © 2016

Note: Actual official high and low records may vary slightly from our data, if they occured in-between our weather recording intervals... More about our weather records


Cruzeiro do Sul Weather History for the Previous 24 Hours

Scroll right to see more
Time TempWeatherWind HumidityBarometerVisibility
5:00 PM
Mon, Oct 24
82 °FScattered clouds.No wind74%29.71 "HgN/A
4:00 PM84 °FScattered clouds.5 mph79%29.71 "HgN/A
3:00 PM86 °FBroken clouds.6 mph70%29.71 "HgN/A
2:00 PM88 °FThunderstorms. Broken clouds.7 mph70%29.77 "HgN/A
1:00 PM84 °FThunderstorms. Partly sunny.3 mph79%29.80 "HgN/A
12:00 PM84 °FLight rain. Partly sunny.7 mph70%29.86 "Hg6 mi
11:00 AM91 °FScattered clouds.3 mph59%29.89 "HgN/A
10:00 AM90 °FScattered clouds.2 mph59%29.89 "HgN/A
9:00 AM88 °FPassing clouds.2 mph62%29.92 "HgN/A
1:45 AM75 °FClear.No wind94%29.83 "Hg10 mi
1:00 AM75 °FClear.No wind94%29.83 "Hg10 mi
12:00 AM75 °FPassing clouds.2 mph94%29.83 "HgN/A
11:00 PM
Sun, Oct 23
75 °FPassing clouds.3 mph94%29.86 "HgN/A
10:00 PM75 °FPartly cloudy.2 mph94%29.86 "HgN/A
9:00 PM77 °FPartly cloudy.No wind89%29.83 "HgN/A
8:00 PM77 °FClear.No wind89%29.83 "Hg10 mi
7:00 PM77 °FClear.5 mph89%29.80 "Hg10 mi
6:00 PM79 °FPassing clouds.3 mph84%29.80 "HgN/A
Weather by CustomWeather, © 2016

See weather overviewHow to use our weather pages